STARLINK-30617, 58104

Orbit data source: Space-Track

STARLINK-30617, 58104 is a payload satellite owned by SpaceX/Seattle (US) in LEO that was launched on Sat, 21 Oct 2023 UTC via an FALCON 9 launch vehicle from the Air Force Western Test Range (AFWTR). Payload-class satellites include a variety of spacecraft equipped with specific instruments for various scientific and technological missions. These include communications satellites like Starlink; space stations such as the ISS; scientific satellites like the Hubble; Earth observation satellites from companies like Planet Labs, Umbra, and HawkEye 360; GPS; miniature CubeSats for education and research; and military/defense satellites.

Loading next visibility...
Identifier
58104, 2023-161H
Orbit
LEO
Country
Flag of USUS
Related business
Manufacturer
SpaceX/Seattle
Mission
Operational Commercial Communications
Bus & Motor
STARLINK V2M, Unknown motor
Mass
730 kg wet, ~700 kg dry
Launch date (UTC)
2023-10-21 (3 years ago)
Launch vehicle
FALCON 9
Launch site
Air Force Western Test Range (AFWTR)
Object type
Payload
Rocket body
Debris
Shape & HBR
Box + 2 Pan, 17.7 m
Radar Cross Section
33.884 m², Large (>1 m²)

Expand to show TLE details & history
Last TLE update: 2 days ago

TLE from 2 days ago
0 STARLINK-30617
1 58104U 23161H   26171.38842948  .00005841  00000-0  18390-3 0  9996
2 58104  53.1607  48.4284 0001184  79.2627 280.8509 15.34395277150148
Epoch: 2026-06-20T09:19Z
TLE epoch observation values (Epoch: 2026-06-20T09:19:20.307Z)
Latitude
0.00001°
Longitude
-0.00997°
Altitude
463.466 km
Speed
7.636 km/s
True Right ascension
03h 13m 42s
True Declination
0° 00' 00"
Sunlit
Object was in daylight at epoch
Visualization orbit readout
Latitude
Unknown
Longitude
Unknown
Altitude
Unknown
Speed
Unknown
Apparent Right ascension
Unknown
Apparent Declination
Unknown
Sunlit
N/A
Visualization observer readout
Local Sidereal Time
23:08:09
Azimuth
Unknown
Elevation
Unknown
Doppler factor
Unknown
Orbital elements
Apogee altitude
463.784 km
Perigee altitude
462.164 km
Semi-major axis
6,841.111 km
Eccentricity
0.00012
Inclination
53.1607°
RAAN
48.4284°
Arg. of periapsis
79.2627°
True anomaly
280.83757°
Mean anomaly
280.8509°
Eccentric anomaly
280.84424°
Mean motion
3.83578 °/min
Orbital period
93.85 mins
BSTAR
0.0001839
Loading maneuver chart data...
Computing Atmospheric mass density...
Loading historical data...
Loading historical data...
Loading historical data...
Loading historical data...
Loading historical data...
Loading historical data...
Loading historical data...

Documentation

Showing up to 5 results
|